Precipitable_Water
1.36 1.35 1.35 1.30 1.30 1.29 1.30 1.28 1.31 1.35 1.34 1.33 1.34 1.33 1.32 1.38 1.40 1.37 1.34 1.31 1.33 1.32 1.29 1.23 1.23 1.31 1.30 1.26 1.28 1.31 1.34 1.42 1.41 1.29 1.24 1.22 1.20 1.20 1.19 1.18 1.16 1.14 1.14 1.11 1.10 1.09 1.08 1.04 0.95 1.00 0.95 0.89 0.85 0.82 0.79 0.76 0.76 0.77 0.76 0.74 0.72 0.71 0.69 0.69 0.67 0.66 0.64 0.63 0.62 0.64 0.67 0.68 0.69 0.70 0.71 0.71 0.72 0.73 0.73 0.72 0.72 0.72 0.72 0.73 0.73
1.26 1.27 1.24 1.20 1.20 1.23 1.25 1.25 1.26 1.29 1.29 1.29 1.34 1.36 1.33 1.33 1.36 1.37 1.34 1.30 1.32 1.33 1.34 1.31 1.29 1.32 1.33 1.35 1.44 1.48 1.40 1.37 1.39 1.36 1.30 1.26 1.24 1.22 1.21 1.20 1.19 1.17 1.14 1.12 1.13 1.10 1.07 1.03 0.97 0.94 0.95 0.92 0.89 0.88 0.85 0.82 0.82 0.82 0.81 0.79 0.77 0.76 0.74 0.71 0.70 0.70 0.68 0.68 0.67 0.66 0.65 0.65 0.67 0.68 0.69 0.70 0.72 0.74 0.74 0.73 0.73 0.72 0.72 0.73 0.72
1.19 1.19 1.21 1.19 1.19 1.22 1.22 1.26 1.27 1.29 1.31 1.32 1.38 1.35 1.34 1.34 1.35 1.35 1.35 1.37 1.36 1.35 1.35 1.33 1.33 1.27 1.35 1.32 1.39 1.40 1.31 1.38 1.45 1.43 1.37 1.32 1.29 1.29 1.26 1.23 1.20 1.16 1.16 1.12 1.10 1.10 1.09 1.05 0.95 0.93 0.97 1.00 0.95 0.91 0.87 0.87 0.86 0.86 0.87 0.85 0.83 0.82 0.79 0.75 0.71 0.71 0.70 0.69 0.67 0.67 0.65 0.64 0.64 0.64 0.64 0.65 0.68 0.72 0.73 0.73 0.73 0.73 0.71 0.71 0.72
1.20 1.22 1.23 1.21 1.21 1.24 1.26 1.26 1.26 1.34 1.36 1.35 1.33 1.34 1.33 1.33 1.38 1.39 1.42 1.42 1.42 1.41 1.39 1.36 1.34 1.30 1.29 1.34 1.41 1.40 1.42 1.48 1.47 1.48 1.42 1.39 1.39 1.36 1.31 1.26 1.21 1.15 1.13 1.13 1.09 1.07 1.05 1.02 0.97 0.92 0.97 1.06 1.01 0.91 0.89 0.89 0.89 0.90 0.90 0.88 0.87 0.87 0.84 0.79 0.76 0.72 0.72 0.72 0.70 0.67 0.66 0.64 0.62 0.61 0.60 0.61 0.62 0.64 0.68 0.70 0.71 0.72 0.71 0.71 0.71
1.19 1.21 1.26 1.26 1.28 1.26 1.26 1.27 1.29 1.32 1.36 1.35 1.35 1.33 1.35 1.36 1.39 1.42 1.41 1.41 1.40 1.37 1.39 1.39 1.35 1.33 1.32 1.34 1.39 1.43 1.46 1.48 1.49 1.52 1.43 1.40 1.40 1.37 1.32 1.27 1.24 1.20 1.18 1.17 1.13 1.12 1.06 1.03 0.99 0.96 0.96 1.00 0.98 0.97 0.97 0.92 0.90 0.91 0.91 0.89 0.89 0.90 0.89 0.87 0.82 0.77 0.73 0.73 0.72 0.70 0.69 0.68 0.65 0.61 0.60 0.60 0.60 0.61 0.62 0.64 0.66 0.67 0.67 0.68 0.68
1.22 1.24 1.24 1.25 1.27 1.22 1.24 1.26 1.32 1.36 1.35 1.35 1.33 1.37 1.38 1.38 1.37 1.38 1.38 1.39 1.34 1.32 1.30 1.29 1.33 1.35 1.34 1.32 1.32 1.38 1.47 1.45 1.49 1.51 1.46 1.39 1.40 1.39 1.36 1.34 1.33 1.31 1.27 1.24 1.19 1.15 1.12 1.10 1.05 0.98 0.96 0.94 0.94 0.98 0.98 0.96 0.94 0.98 0.99 0.99 0.98 0.96 0.93 0.90 0.85 0.82 0.78 0.74 0.72 0.71 0.69 0.68 0.68 0.65 0.62 0.61 0.60 0.60 0.59 0.61 0.62 0.63 0.64 0.64 0.65
1.22 1.24 1.21 1.23 1.21 1.19 1.22 1.28 1.33 1.35 1.33 1.34 1.36 1.37 1.38 1.36 1.37 1.34 1.39 1.38 1.34 1.31 1.25 1.28 1.33 1.34 1.35 1.35 1.35 1.39 1.43 1.42 1.45 1.47 1.43 1.40 1.38 1.37 1.36 1.36 1.37 1.36 1.32 1.30 1.29 1.27 1.24 1.20 1.16 1.10 1.05 1.03 1.02 1.03 1.04 1.04 1.03 1.03 1.08 1.07 1.05 1.04 1.03 0.98 0.93 0.89 0.84 0.80 0.78 0.75 0.73 0.70 0.68 0.67 0.66 0.62 0.60 0.59 0.59 0.61 0.61 0.62 0.63 0.63 0.65
1.16 1.20 1.16 1.15 1.17 1.17 1.23 1.29 1.34 1.34 1.33 1.32 1.36 1.33 1.33 1.34 1.38 1.35 1.31 1.30 1.31 1.28 1.28 1.28 1.34 1.34 1.37 1.36 1.37 1.39 1.40 1.42 1.50 1.48 1.45 1.43 1.39 1.37 1.37 1.37 1.39 1.40 1.40 1.38 1.37 1.38 1.36 1.33 1.26 1.21 1.17 1.14 1.14 1.14 1.16 1.16 1.16 1.13 1.13 1.17 1.16 1.13 1.12 1.10 1.06 1.03 0.98 0.95 0.90 0.86 0.82 0.77 0.73 0.68 0.66 0.65 0.63 0.61 0.60 0.65 0.64 0.64 0.65 0.64 0.64
1.07 1.13 1.12 1.12 1.13 1.19 1.25 1.28 1.34 1.32 1.31 1.30 1.33 1.35 1.31 1.31 1.35 1.35 1.32 1.27 1.29 1.26 1.25 1.29 1.31 1.33 1.37 1.36 1.35 1.35 1.36 1.40 1.46 1.46 1.46 1.41 1.40 1.38 1.38 1.39 1.42 1.43 1.42 1.41 1.41 1.41 1.43 1.43 1.41 1.37 1.32 1.29 1.28 1.29 1.28 1.28 1.29 1.29 1.28 1.29 1.32 1.28 1.25 1.23 1.20 1.16 1.13 1.11 1.09 1.01 0.96 0.93 0.90 0.87 0.82 0.78 0.73 0.68 0.67 0.68 0.70 0.68 0.67 0.68 0.67
1.03 1.06 1.07 1.14 1.19 1.23 1.25 1.27 1.30 1.29 1.27 1.30 1.32 1.33 1.29 1.30 1.27 1.31 1.31 1.26 1.24 1.20 1.20 1.25 1.31 1.36 1.35 1.33 1.35 1.32 1.35 1.40 1.46 1.48 1.43 1.40 1.40 1.38 1.41 1.42 1.43 1.43 1.43 1.43 1.44 1.43 1.44 1.44 1.44 1.43 1.41 1.37 1.36 1.37 1.37 1.39 1.38 1.37 1.36 1.37 1.34 1.33 1.34 1.34 1.32 1.27 1.25 1.24 1.22 1.20 1.17 1.08 1.02 0.99 0.96 0.92 0.87 0.83 0.79 0.74 0.70 0.72 0.68 0.68 0.68
1.11 1.10 1.10 1.15 1.18 1.23 1.24 1.25 1.27 1.25 1.24 1.25 1.24 1.22 1.23 1.26 1.22 1.21 1.27 1.26 1.23 1.21 1.20 1.23 1.27 1.32 1.31 1.32 1.32 1.28 1.32 1.43 1.47 1.50 1.40 1.39 1.37 1.39 1.42 1.41 1.40 1.41 1.42 1.42 1.40 1.39 1.39 1.40 1.39 1.40 1.40 1.40 1.40 1.41 1.41 1.42 1.42 1.40 1.39 1.44 1.41 1.37 1.38 1.37 1.36 1.35 1.32 1.29 1.27 1.26 1.26 1.26 1.23 1.17 1.10 1.05 0.99 0.94 0.88 0.84 0.82 0.76 0.74 0.70 0.68
1.13 1.14 1.10 1.14 1.19 1.20 1.19 1.24 1.23 1.21 1.17 1.18 1.16 1.17 1.17 1.17 1.17 1.17 1.17 1.19 1.24 1.24 1.22 1.22 1.24 1.28 1.28 1.31 1.30 1.29 1.37 1.44 1.44 1.47 1.41 1.36 1.36 1.39 1.34 1.37 1.39 1.41 1.42 1.41 1.43 1.42 1.41 1.39 1.40 1.41 1.43 1.43 1.42 1.43 1.45 1.40 1.38 1.39 1.40 1.39 1.38 1.38 1.39 1.39 1.40 1.38 1.37 1.35 1.33 1.31 1.29 1.29 1.29 1.29 1.27 1.23 1.17 1.14 1.09 1.02 0.97 0.91 0.87 0.83 0.75
1.20 1.18 1.13 1.14 1.16 1.17 1.17 1.18 1.20 1.17 1.16 1.14 1.19 1.19 1.20 1.21 1.18 1.18 1.13 1.09 1.14 1.22 1.24 1.26 1.18 1.18 1.26 1.25 1.21 1.30 1.40 1.35 1.34 1.31 1.32 1.39 1.45 1.37 1.33 1.32 1.34 1.35 1.39 1.43 1.44 1.43 1.44 1.46 1.46 1.46 1.42 1.43 1.44 1.42 1.38 1.38 1.37 1.36 1.37 1.39 1.43 1.45 1.45 1.43 1.45 1.40 1.40 1.35 1.31 1.31 1.32 1.31 1.30 1.29 1.29 1.30 1.29 1.26 1.23 1.20 1.14 1.09 1.01 0.96 0.91
1.18 1.19 1.16 1.11 1.11 1.13 1.16 1.18 1.20 1.16 1.14 1.15 1.17 1.17 1.18 1.18 1.18 1.12 1.17 1.11 1.08 1.17 1.19 1.18 1.08 1.03 1.00 1.04 1.11 1.20 1.26 1.30 1.26 1.27 1.29 1.31 1.34 1.36 1.36 1.35 1.33 1.36 1.41 1.43 1.41 1.42 1.43 1.43 1.44 1.43 1.43 1.43 1.40 1.35 1.33 1.32 1.30 1.29 1.27 1.29 1.34 1.38 1.41 1.41 1.42 1.42 1.42 1.41 1.39 1.38 1.35 1.33 1.32 1.31 1.29 1.29 1.30 1.31 1.30 1.28 1.25 1.21 1.16 1.10 1.02
1.13 1.13 1.13 1.12 1.10 1.11 1.14 1.19 1.19 1.19 1.14 1.12 1.14 1.13 1.15 1.14 1.14 1.09 1.07 1.14 1.11 1.18 1.17 1.16 1.02 1.09 1.08 0.99 0.93 0.94 1.09 1.16 1.24 1.20 1.22 1.29 1.34 1.33 1.34 1.34 1.36 1.37 1.38 1.41 1.39 1.39 1.38 1.40 1.40 1.40 1.41 1.43 1.38 1.34 1.33 1.30 1.26 1.22 1.17 1.17 1.22 1.28 1.32 1.36 1.40 1.40 1.40 1.40 1.40 1.39 1.38 1.41 1.39 1.38 1.35 1.33 1.34 1.32 1.30 1.29 1.28 1.26 1.22 1.18 1.13
1.04 1.05 1.08 1.12 1.11 1.12 1.16 1.14 1.16 1.18 1.13 1.10 1.10 1.12 1.17 1.14 1.14 1.16 1.11 0.99 1.03 1.05 1.17 1.19 1.13 1.07 0.90 0.93 0.95 0.93 0.86 0.95 1.05 1.14 1.25 1.28 1.32 1.34 1.35 1.36 1.38 1.40 1.41 1.38 1.36 1.36 1.35 1.37 1.34 1.36 1.37 1.38 1.35 1.34 1.27 1.21 1.17 1.11 1.07 1.07 1.10 1.14 1.19 1.23 1.27 1.29 1.34 1.35 1.38 1.39 1.40 1.42 1.42 1.41 1.41 1.39 1.37 1.37 1.37 1.36 1.31 1.27 1.25 1.23 1.18
0.98 1.01 1.02 1.02 1.08 1.10 1.13 1.15 1.17 1.16 1.15 1.10 1.11 1.13 1.15 1.14 1.15 1.14 1.09 0.99 0.95 1.01 1.09 1.16 1.13 1.21 1.08 0.94 0.88 0.85 0.87 0.98 1.06 1.06 1.17 1.19 1.24 1.27 1.30 1.32 1.35 1.37 1.35 1.32 1.35 1.34 1.34 1.34 1.36 1.35 1.29 1.26 1.20 1.13 1.04 1.00 0.99 0.99 0.99 1.02 1.05 1.08 1.09 1.13 1.17 1.19 1.21 1.25 1.28 1.31 1.34 1.36 1.37 1.38 1.39 1.40 1.40 1.39 1.40 1.41 1.38 1.35 1.33 1.30 1.28
0.98 0.96 0.96 0.88 0.87 0.93 0.95 1.00 1.09 1.11 1.13 1.10 1.10 1.13 1.12 1.11 1.12 1.11 1.08 1.08 1.00 0.99 1.00 1.13 1.14 1.16 1.18 1.18 1.05 0.87 0.89 0.99 0.95 0.84 1.12 1.19 1.19 1.22 1.24 1.28 1.29 1.28 1.26 1.25 1.26 1.27 1.28 1.24 1.24 1.19 1.18 1.15 1.11 1.00 0.96 0.98 0.98 0.97 0.97 0.99 1.03 1.06 1.08 1.11 1.14 1.20 1.22 1.23 1.24 1.30 1.33 1.32 1.29 1.28 1.29 1.32 1.36 1.40 1.40 1.40 1.42 1.46 1.43 1.40 1.39
0.91 0.93 0.90 0.82 0.87 0.85 0.86 0.89 0.91 0.98 1.05 1.07 1.05 1.07 1.11 1.13 1.17 1.15 1.12 1.11 1.05 0.98 1.00 1.03 1.10 1.12 1.15 1.16 1.11 1.08 1.08 0.96 0.86 0.92 0.84 1.01 1.12 1.11 1.13 1.21 1.22 1.20 1.19 1.22 1.21 1.18 1.18 1.15 1.12 1.11 1.08 1.05 1.01 1.00 0.97 0.93 0.91 0.90 0.90 0.92 0.95 0.97 1.00 1.01 1.02 1.05 1.08 1.12 1.11 1.15 1.12 1.15 1.14 1.15 1.16 1.18 1.21 1.25 1.29 1.33 1.37 1.38 1.44 1.51 1.51
0.86 0.87 0.83 0.86 0.88 0.89 0.86 0.91 0.90 0.90 0.92 0.95 1.05 1.08 1.12 1.17 1.19 1.19 1.14 1.11 1.09 1.04 1.07 1.09 1.00 1.00 1.11 1.06 1.05 1.07 1.07 1.04 0.99 0.90 0.85 0.81 0.89 1.05 1.13 1.15 1.14 1.11 1.11 1.13 1.15 1.13 1.09 1.10 1.06 1.03 1.01 0.99 0.95 0.93 0.90 0.85 0.81 0.79 0.78 0.76 0.76 0.78 0.79 0.81 0.83 0.85 0.89 0.93 0.95 0.96 0.97 0.99 1.02 1.05 1.05 1.06 1.11 1.16 1.21 1.23 1.26 1.31 1.33 1.35 1.41
0.92 0.97 0.90 0.90 0.90 0.89 0.89 0.85 0.79 0.88 0.88 0.88 0.93 1.05 1.10 1.12 1.13 1.09 1.06 1.07 1.10 1.09 1.08 1.06 1.06 1.03 1.04 1.02 1.03 1.01 1.03 1.03 1.01 0.95 0.86 0.79 0.81 0.85 0.90 1.01 1.03 1.04 1.06 1.09 1.10 1.09 1.06 1.02 0.97 0.95 0.92 0.85 0.81 0.77 0.71 0.66 0.65 0.65 0.64 0.61 0.60 0.60 0.61 0.64 0.68 0.71 0.75 0.82 0.88 0.89 0.91 0.93 0.94 0.96 0.98 1.00 1.03 1.08 1.13 1.18 1.27 1.33 1.35 1.37 1.40
0.93 0.98 0.96 0.93 0.88 0.86 0.91 0.88 0.86 0.90 0.91 0.91 0.99 1.02 1.08 1.12 1.13 1.08 1.08 1.03 1.05 1.06 1.06 1.10 1.10 1.11 1.09 1.05 0.97 0.99 0.99 0.96 0.94 0.91 0.91 0.90 0.80 0.83 0.87 0.88 0.85 0.91 0.99 1.03 1.02 0.98 0.90 0.83 0.75 0.68 0.63 0.60 0.58 0.53 0.52 0.52 0.53 0.53 0.54 0.53 0.53 0.52 0.52 0.51 0.51 0.54 0.59 0.66 0.74 0.80 0.84 0.87 0.90 0.90 0.91 0.94 0.96 0.97 0.98 1.01 1.07 1.15 1.25 1.34 1.41
0.92 0.92 0.91 0.93 0.91 0.87 0.87 0.90 0.89 0.91 0.90 0.90 0.97 1.01 1.19 1.11 1.10 1.12 1.09 0.98 0.96 1.03 1.05 1.08 1.06 1.04 1.07 1.07 1.02 1.00 0.96 0.91 0.90 0.92 0.91 0.87 0.84 0.84 0.87 0.87 0.83 0.80 0.86 0.91 0.87 0.78 0.72 0.67 0.62 0.60 0.56 0.48 0.44 0.43 0.43 0.45 0.46 0.45 0.44 0.43 0.42 0.41 0.38 0.36 0.35 0.36 0.37 0.41 0.47 0.56 0.63 0.71 0.79 0.84 0.88 0.90 0.90 0.90 0.88 0.87 0.86 0.88 0.98 1.10 1.20
0.88 0.87 0.84 0.85 0.89 0.86 0.84 0.84 0.87 0.88 0.84 0.83 0.86 0.97 1.04 1.04 1.01 1.02 0.99 0.96 0.96 0.96 0.95 0.94 0.95 0.98 1.03 1.06 1.06 1.08 1.06 1.01 1.02 1.01 0.95 0.93 0.90 0.87 0.84 0.82 0.81 0.80 0.81 0.78 0.73 0.64 0.61 0.58 0.54 0.51 0.48 0.42 0.39 0.36 0.36 0.37 0.38 0.37 0.35 0.34 0.33 0.32 0.32 0.32 0.32 0.31 0.31 0.31 0.32 0.34 0.37 0.40 0.44 0.52 0.60 0.66 0.71 0.72 0.71 0.69 0.68 0.70 0.74 0.80 0.87
0.81 0.76 0.77 0.80 0.83 0.81 0.79 0.78 0.82 0.84 0.84 0.84 0.84 0.86 0.92 0.94 0.97 0.97 0.95 0.90 0.89 0.90 0.89 0.90 0.92 0.90 0.93 1.01 1.07 1.09 1.08 1.11 1.09 1.02 1.02 0.99 0.93 0.84 0.81 0.79 0.72 0.72 0.69 0.63 0.56 0.60 0.57 0.51 0.48 0.44 0.43 0.41 0.38 0.35 0.35 0.36 0.36 0.36 0.33 0.34 0.35 0.34 0.34 0.34 0.34 0.33 0.33 0.33 0.33 0.33 0.34 0.35 0.34 0.34 0.33 0.34 0.37 0.40 0.42 0.44 0.46 0.47 0.50 0.52 0.56
0.81 0.77 0.78 0.82 0.85 0.83 0.80 0.79 0.82 0.83 0.83 0.82 0.80 0.82 0.85 0.88 0.92 0.93 0.91 0.92 0.92 0.92 0.93 0.93 0.94 0.95 0.99 1.01 1.06 1.08 1.09 1.12 1.08 1.05 1.00 0.95 0.87 0.73 0.65 0.66 0.63 0.58 0.59 0.55 0.52 0.45 0.46 0.51 0.50 0.48 0.48 0.47 0.44 0.43 0.43 0.45 0.44 0.43 0.40 0.35 0.34 0.36 0.36 0.37 0.37 0.36 0.35 0.35 0.35 0.35 0.34 0.35 0.35 0.35 0.35 0.35 0.34 0.34 0.34 0.35 0.34 0.35 0.35 0.35 0.36
0.85 0.84 0.82 0.84 0.85 0.79 0.76 0.74 0.78 0.80 0.81 0.81 0.82 0.81 0.82 0.85 0.89 0.93 0.95 0.96 0.95 0.94 0.93 0.95 0.93 0.94 0.98 1.03 1.06 1.07 1.09 1.10 1.08 1.04 1.03 0.97 0.87 0.75 0.67 0.57 0.55 0.56 0.47 0.44 0.42 0.40 0.39 0.46 0.51 0.50 0.49 0.48 0.48 0.48 0.47 0.52 0.53 0.56 0.56 0.48 0.45 0.48 0.49 0.50 0.50 0.49 0.48 0.47 0.45 0.44 0.43 0.41 0.40 0.39 0.38 0.37 0.37 0.36 0.36 0.37 0.37 0.36 0.36 0.36 0.36
0.87 0.84 0.80 0.81 0.80 0.77 0.75 0.76 0.78 0.78 0.77 0.77 0.78 0.76 0.78 0.80 0.84 0.91 0.90 0.93 0.89 0.89 0.90 0.92 0.92 0.93 0.95 0.97 0.98 0.98 1.03 1.04 1.05 1.02 1.02 1.00 0.91 0.78 0.67 0.57 0.46 0.39 0.40 0.37 0.35 0.35 0.43 0.40 0.46 0.49 0.49 0.51 0.54 0.54 0.54 0.59 0.61 0.61 0.62 0.58 0.50 0.48 0.49 0.49 0.49 0.49 0.48 0.46 0.46 0.46 0.46 0.46 0.47 0.47 0.46 0.45 0.45 0.43 0.41 0.40 0.39 0.37 0.36 0.36 0.36
0.86 0.82 0.77 0.78 0.75 0.73 0.70 0.67 0.68 0.71 0.70 0.70 0.70 0.70 0.71 0.74 0.77 0.80 0.81 0.83 0.81 0.78 0.75 0.73 0.74 0.75 0.77 0.80 0.83 0.83 0.87 0.94 0.97 0.97 0.97 0.97 0.94 0.79 0.66 0.57 0.48 0.41 0.31 0.29 0.31 0.34 0.41 0.43 0.41 0.46 0.52 0.54 0.57 0.58 0.56 0.58 0.60 0.59 0.58 0.55 0.49 0.47 0.49 0.50 0.49 0.47 0.46 0.45 0.44 0.45 0.46 0.46 0.46 0.46 0.45 0.45 0.46 0.46 0.46 0.46 0.46 0.45 0.43 0.41 0.39
0.82 0.74 0.74 0.71 0.70 0.68 0.61 0.59 0.63 0.66 0.66 0.65 0.65 0.65 0.66 0.68 0.71 0.73 0.76 0.78 0.73 0.69 0.68 0.69 0.67 0.67 0.65 0.69 0.73 0.73 0.75 0.78 0.79 0.79 0.76 0.76 0.75 0.68 0.62 0.60 0.52 0.40 0.34 0.30 0.32 0.39 0.39 0.44 0.45 0.46 0.52 0.53 0.55 0.54 0.54 0.54 0.56 0.54 0.54 0.56 0.54 0.50 0.50 0.51 0.51 0.49 0.46 0.44 0.43 0.43 0.44 0.45 0.44 0.43 0.42 0.42 0.42 0.42 0.41 0.41 0.42 0.43 0.45 0.45 0.45
0.72 0.67 0.65 0.61 0.57 0.54 0.54 0.54 0.57 0.59 0.61 0.60 0.60 0.61 0.63 0.64 0.66 0.66 0.66 0.68 0.66 0.65 0.66 0.65 0.65 0.65 0.63 0.63 0.65 0.64 0.65 0.67 0.68 0.68 0.68 0.67 0.66 0.64 0.64 0.61 0.55 0.47 0.46 0.40 0.37 0.41 0.45 0.42 0.46 0.50 0.51 0.51 0.50 0.48 0.49 0.50 0.53 0.54 0.54 0.57 0.57 0.54 0.52 0.53 0.52 0.51 0.48 0.46 0.44 0.43 0.43 0.43 0.43 0.42 0.37 0.37 0.37 0.37 0.37 0.37 0.37 0.36 0.36 0.36 0.38
0.69 0.66 0.58 0.53 0.49 0.47 0.49 0.50 0.51 0.53 0.54 0.55 0.56 0.56 0.58 0.59 0.60 0.60 0.58 0.57 0.58 0.58 0.58 0.57 0.53 0.51 0.53 0.56 0.57 0.57 0.58 0.58 0.59 0.61 0.62 0.63 0.63 0.60 0.60 0.59 0.56 0.54 0.53 0.49 0.45 0.44 0.49 0.47 0.47 0.49 0.50 0.49 0.48 0.47 0.49 0.52 0.55 0.56 0.56 0.57 0.59 0.57 0.54 0.54 0.52 0.51 0.50 0.49 0.47 0.45 0.45 0.45 0.45 0.44 0.41 0.38 0.37 0.37 0.37 0.37 0.36 0.35 0.34 0.34 0.35
0.69 0.63 0.57 0.53 0.50 0.48 0.45 0.44 0.45 0.47 0.47 0.48 0.49 0.49 0.50 0.51 0.51 0.49 0.49 0.50 0.50 0.51 0.51 0.49 0.48 0.47 0.47 0.46 0.49 0.54 0.57 0.55 0.55 0.56 0.57 0.59 0.62 0.61 0.63 0.62 0.58 0.58 0.56 0.52 0.50 0.48 0.52 0.57 0.54 0.53 0.55 0.52 0.48 0.50 0.49 0.51 0.55 0.57 0.58 0.57 0.60 0.58 0.55 0.53 0.54 0.54 0.53 0.50 0.47 0.45 0.45 0.46 0.47 0.46 0.44 0.43 0.41 0.39 0.39 0.39 0.39 0.38 0.36 0.36 0.37
0.68 0.64 0.58 0.54 0.53 0.51 0.47 0.46 0.46 0.45 0.44 0.44 0.46 0.48 0.46 0.44 0.47 0.48 0.49 0.48 0.48 0.50 0.50 0.48 0.51 0.53 0.51 0.48 0.47 0.48 0.50 0.49 0.51 0.53 0.55 0.56 0.58 0.60 0.63 0.65 0.65 0.64 0.65 0.59 0.56 0.52 0.50 0.56 0.55 0.57 0.53 0.56 0.49 0.54 0.52 0.54 0.57 0.59 0.58 0.58 0.57 0.55 0.54 0.55 0.55 0.54 0.52 0.49 0.45 0.44 0.44 0.45 0.46 0.47 0.45 0.44 0.43 0.42 0.40 0.40 0.40 0.41 0.40 0.39 0.39
0.71 0.70 0.60 0.57 0.57 0.54 0.51 0.50 0.46 0.46 0.46 0.48 0.50 0.47 0.45 0.47 0.50 0.52 0.53 0.55 0.55 0.53 0.52 0.53 0.56 0.58 0.57 0.56 0.57 0.58 0.60 0.60 0.62 0.64 0.65 0.64 0.65 0.64 0.65 0.67 0.67 0.67 0.66 0.64 0.58 0.54 0.52 0.51 0.55 0.55 0.58 0.61 0.57 0.58 0.62 0.62 0.63 0.62 0.60 0.56 0.52 0.54 0.58 0.58 0.56 0.55 0.50 0.44 0.43 0.43 0.44 0.44 0.46 0.47 0.46 0.45 0.44 0.43 0.41 0.40 0.40 0.41 0.41 0.40 0.40
0.70 0.72 0.65 0.58 0.58 0.57 0.55 0.52 0.50 0.50 0.52 0.55 0.52 0.50 0.52 0.58 0.55 0.55 0.57 0.60 0.61 0.62 0.62 0.62 0.62 0.63 0.62 0.61 0.62 0.64 0.64 0.63 0.65 0.67 0.68 0.68 0.68 0.66 0.65 0.67 0.67 0.66 0.67 0.68 0.66 0.61 0.58 0.55 0.58 0.58 0.62 0.62 0.65 0.67 0.65 0.65 0.63 0.62 0.61 0.60 0.59 0.59 0.59 0.59 0.57 0.52 0.44 0.42 0.44 0.45 0.45 0.44 0.45 0.47 0.46 0.46 0.45 0.43 0.40 0.39 0.40 0.41 0.41 0.40 0.40
0.71 0.73 0.66 0.60 0.59 0.59 0.57 0.54 0.53 0.54 0.55 0.55 0.54 0.53 0.59 0.61 0.59 0.58 0.61 0.64 0.65 0.65 0.64 0.63 0.63 0.62 0.61 0.61 0.62 0.63 0.62 0.61 0.64 0.67 0.70 0.70 0.70 0.70 0.70 0.72 0.72 0.73 0.74 0.73 0.72 0.71 0.65 0.61 0.62 0.66 0.69 0.70 0.68 0.68 0.67 0.65 0.63 0.61 0.62 0.60 0.58 0.57 0.57 0.57 0.54 0.50 0.45 0.43 0.45 0.45 0.44 0.44 0.44 0.45 0.45 0.44 0.43 0.41 0.37 0.38 0.40 0.41 0.41 0.40 0.40
0.73 0.74 0.67 0.64 0.61 0.60 0.57 0.57 0.57 0.57 0.57 0.54 0.53 0.54 0.59 0.60 0.59 0.60 0.63 0.64 0.65 0.65 0.64 0.63 0.62 0.62 0.59 0.59 0.61 0.62 0.62 0.61 0.63 0.67 0.72 0.73 0.74 0.73 0.72 0.74 0.77 0.76 0.76 0.75 0.75 0.74 0.72 0.68 0.67 0.67 0.71 0.68 0.67 0.67 0.68 0.66 0.61 0.58 0.57 0.57 0.56 0.54 0.51 0.49 0.47 0.44 0.44 0.43 0.42 0.42 0.42 0.42 0.41 0.41 0.40 0.40 0.38 0.34 0.34 0.37 0.39 0.39 0.39 0.39 0.38
0.77 0.73 0.69 0.65 0.64 0.63 0.57 0.60 0.59 0.58 0.58 0.56 0.54 0.53 0.55 0.59 0.59 0.60 0.63 0.65 0.67 0.66 0.65 0.64 0.64 0.63 0.62 0.60 0.59 0.61 0.60 0.62 0.63 0.64 0.69 0.73 0.75 0.75 0.79 0.81 0.81 0.80 0.77 0.76 0.75 0.73 0.72 0.71 0.72 0.72 0.69 0.71 0.69 0.64 0.66 0.65 0.61 0.56 0.50 0.49 0.47 0.50 0.50 0.46 0.39 0.41 0.43 0.42 0.42 0.42 0.42 0.42 0.40 0.39 0.37 0.34 0.32 0.33 0.34 0.36 0.36 0.37 0.38 0.38 0.37
0.81 0.80 0.73 0.68 0.70 0.69 0.64 0.61 0.61 0.61 0.60 0.59 0.59 0.58 0.55 0.57 0.59 0.62 0.63 0.66 0.67 0.66 0.66 0.67 0.68 0.67 0.66 0.65 0.65 0.65 0.65 0.65 0.64 0.64 0.67 0.71 0.76 0.77 0.80 0.82 0.82 0.80 0.80 0.79 0.77 0.76 0.73 0.72 0.71 0.69 0.69 0.67 0.67 0.68 0.67 0.62 0.55 0.52 0.53 0.49 0.44 0.45 0.44 0.43 0.42 0.40 0.42 0.41 0.39 0.40 0.41 0.41 0.39 0.35 0.34 0.34 0.35 0.35 0.36 0.37 0.38 0.39 0.38 0.37 0.37
0.88 0.83 0.82 0.74 0.75 0.70 0.72 0.68 0.66 0.64 0.62 0.59 0.61 0.61 0.60 0.60 0.59 0.59 0.60 0.62 0.65 0.66 0.66 0.66 0.69 0.70 0.72 0.72 0.72 0.71 0.72 0.72 0.71 0.72 0.74 0.77 0.78 0.77 0.81 0.83 0.82 0.82 0.83 0.83 0.82 0.80 0.79 0.76 0.72 0.71 0.68 0.66 0.66 0.62 0.57 0.54 0.50 0.49 0.52 0.51 0.46 0.45 0.43 0.41 0.43 0.46 0.45 0.41 0.39 0.39 0.38 0.36 0.33 0.33 0.34 0.34 0.36 0.36 0.38 0.39 0.38 0.37 0.37 0.36 0.36
0.90 0.89 0.82 0.76 0.76 0.73 0.73 0.76 0.74 0.70 0.67 0.65 0.65 0.65 0.64 0.64 0.64 0.63 0.63 0.61 0.61 0.63 0.63 0.65 0.65 0.68 0.70 0.72 0.74 0.74 0.75 0.76 0.76 0.78 0.80 0.82 0.85 0.84 0.84 0.84 0.84 0.83 0.84 0.83 0.83 0.82 0.81 0.78 0.75 0.70 0.64 0.63 0.63 0.60 0.56 0.55 0.54 0.53 0.50 0.49 0.45 0.45 0.44 0.41 0.42 0.46 0.47 0.42 0.35 0.31 0.32 0.34 0.34 0.32 0.34 0.35 0.38 0.40 0.40 0.40 0.38 0.38 0.37 0.37 0.37
0.90 0.89 0.89 0.84 0.79 0.78 0.77 0.79 0.79 0.78 0.77 0.75 0.71 0.70 0.69 0.68 0.68 0.67 0.67 0.67 0.68 0.69 0.70 0.68 0.70 0.71 0.72 0.74 0.74 0.75 0.75 0.76 0.78 0.82 0.84 0.85 0.86 0.86 0.86 0.88 0.89 0.87 0.85 0.84 0.84 0.84 0.81 0.79 0.76 0.72 0.68 0.65 0.64 0.63 0.59 0.57 0.56 0.53 0.51 0.49 0.47 0.46 0.42 0.38 0.34 0.39 0.46 0.39 0.33 0.30 0.30 0.34 0.35 0.32 0.34 0.36 0.39 0.41 0.43 0.42 0.39 0.38 0.38 0.38 0.38
0.90 0.89 0.89 0.88 0.87 0.84 0.81 0.79 0.79 0.79 0.80 0.82 0.79 0.76 0.75 0.74 0.73 0.72 0.71 0.71 0.72 0.74 0.75 0.76 0.77 0.76 0.74 0.74 0.76 0.78 0.79 0.80 0.81 0.83 0.86 0.87 0.88 0.89 0.88 0.88 0.89 0.90 0.92 0.89 0.85 0.83 0.83 0.79 0.74 0.72 0.69 0.65 0.63 0.62 0.61 0.59 0.57 0.54 0.53 0.51 0.49 0.46 0.42 0.39 0.36 0.32 0.37 0.39 0.34 0.31 0.29 0.32 0.35 0.35 0.34 0.36 0.37 0.41 0.41 0.40 0.38 0.38 0.37 0.37 0.36
0.93 0.90 0.87 0.88 0.88 0.88 0.86 0.83 0.80 0.81 0.80 0.81 0.81 0.79 0.80 0.81 0.81 0.80 0.81 0.80 0.78 0.80 0.83 0.83 0.83 0.80 0.79 0.81 0.85 0.89 0.89 0.90 0.91 0.92 0.93 0.93 0.93 0.92 0.90 0.89 0.89 0.89 0.89 0.89 0.90 0.89 0.87 0.80 0.72 0.68 0.66 0.66 0.62 0.62 0.64 0.61 0.59 0.54 0.53 0.50 0.48 0.44 0.40 0.36 0.34 0.33 0.34 0.37 0.34 0.31 0.28 0.32 0.35 0.34 0.33 0.35 0.38 0.38 0.37 0.37 0.36 0.37 0.38 0.37 0.37
0.92 0.92 0.92 0.88 0.86 0.84 0.84 0.84 0.83 0.83 0.82 0.83 0.81 0.81 0.82 0.82 0.82 0.83 0.84 0.88 0.89 0.86 0.84 0.86 0.85 0.87 0.88 0.89 0.91 0.92 0.94 0.96 0.96 0.95 0.93 0.92 0.91 0.89 0.88 0.87 0.85 0.86 0.86 0.86 0.86 0.85 0.80 0.75 0.71 0.68 0.72 0.71 0.66 0.66 0.66 0.64 0.57 0.52 0.49 0.45 0.43 0.39 0.36 0.34 0.35 0.35 0.37 0.38 0.34 0.32 0.30 0.32 0.35 0.33 0.31 0.34 0.36 0.35 0.35 0.36 0.37 0.37 0.36 0.36 0.36
0.89 0.90 0.90 0.89 0.90 0.89 0.87 0.85 0.83 0.83 0.83 0.84 0.83 0.82 0.81 0.82 0.83 0.82 0.82 0.84 0.88 0.89 0.90 0.89 0.89 0.89 0.91 0.91 0.92 0.91 0.94 0.98 0.97 0.96 0.92 0.92 0.89 0.87 0.87 0.86 0.85 0.84 0.85 0.84 0.81 0.78 0.76 0.78 0.78 0.76 0.76 0.75 0.73 0.71 0.67 0.63 0.58 0.54 0.49 0.44 0.40 0.38 0.38 0.39 0.37 0.37 0.36 0.40 0.38 0.34 0.27 0.31 0.34 0.31 0.30 0.32 0.34 0.34 0.36 0.37 0.37 0.37 0.36 0.36 0.36
0.83 0.85 0.88 0.90 0.89 0.90 0.91 0.89 0.86 0.82 0.84 0.85 0.83 0.82 0.82 0.82 0.81 0.81 0.81 0.82 0.86 0.89 0.91 0.96 0.94 0.91 0.91 0.92 0.91 0.91 0.94 0.94 0.95 0.94 0.93 0.93 0.89 0.85 0.84 0.84 0.83 0.83 0.84 0.84 0.80 0.80 0.79 0.76 0.73 0.72 0.71 0.70 0.67 0.63 0.60 0.57 0.54 0.50 0.46 0.44 0.43 0.41 0.38 0.35 0.32 0.35 0.34 0.39 0.38 0.33 0.28 0.29 0.33 0.30 0.30 0.33 0.34 0.32 0.35 0.35 0.36 0.37 0.37 0.37 0.37
0.81 0.78 0.79 0.84 0.87 0.86 0.86 0.86 0.83 0.82 0.82 0.83 0.82 0.80 0.78 0.78 0.78 0.77 0.77 0.78 0.81 0.85 0.86 0.89 0.91 0.93 0.93 0.92 0.91 0.92 0.93 0.92 0.93 0.94 0.95 0.92 0.87 0.85 0.83 0.82 0.81 0.79 0.79 0.78 0.76 0.74 0.71 0.70 0.70 0.68 0.66 0.62 0.60 0.59 0.58 0.55 0.51 0.48 0.44 0.40 0.38 0.39 0.35 0.31 0.31 0.32 0.32 0.35 0.36 0.35 0.31 0.28 0.31 0.30 0.29 0.31 0.32 0.31 0.33 0.34 0.36 0.37 0.37 0.37 0.38
0.66 0.72 0.79 0.81 0.84 0.87 0.86 0.84 0.83 0.80 0.78 0.79 0.79 0.78 0.77 0.77 0.78 0.77 0.78 0.77 0.78 0.80 0.84 0.86 0.86 0.86 0.88 0.89 0.89 0.89 0.89 0.92 0.96 0.95 0.92 0.90 0.85 0.83 0.82 0.82 0.82 0.80 0.76 0.69 0.64 0.64 0.67 0.69 0.67 0.64 0.63 0.62 0.61 0.58 0.54 0.51 0.47 0.46 0.42 0.37 0.39 0.39 0.35 0.34 0.31 0.32 0.33 0.33 0.34 0.36 0.30 0.29 0.31 0.32 0.29 0.30 0.31 0.32 0.33 0.35 0.36 0.36 0.37 0.38 0.38
0.70 0.71 0.71 0.73 0.77 0.79 0.78 0.74 0.75 0.74 0.74 0.75 0.75 0.73 0.73 0.75 0.77 0.78 0.78 0.77 0.76 0.78 0.80 0.81 0.84 0.85 0.86 0.88 0.88 0.90 0.91 0.92 0.93 0.92 0.89 0.88 0.86 0.84 0.83 0.80 0.76 0.67 0.64 0.66 0.66 0.64 0.64 0.62 0.61 0.61 0.60 0.60 0.56 0.52 0.49 0.47 0.47 0.47 0.47 0.45 0.44 0.40 0.36 0.35 0.33 0.32 0.28 0.29 0.35 0.37 0.29 0.29 0.30 0.31 0.30 0.26 0.23 0.29 0.33 0.34 0.34 0.35 0.37 0.38 0.39
Wind_Speed
8 8 8 8 8 9 8 8 8 8 8 8 8 7 8 8 8 8 7 7 8 8 8 8 10 11 11 12 13 13 12 13 13 13 13 12 12 12 12 12 11 11 11 11 11 11 11 10 11 11 10 10 9 8 8 8 7 7 6 6 7 7 6 6 6 6 6 6 6 5 5 5 5 5 5 5 4 4 4 3 3 3 3 3 3
6 7 8 8 8 8 8 7 7 6 6 6 6 6 6 7 7 7 7 7 7 7 8 8 8 9 9 10 11 12 12 12 13 12 12 12 13 12 12 11 11 11 11 11 11 11 11 11 11 11 11 11 10 10 9 9 8 8 8 8 8 8 8 8 8 7 7 7 7 7 7 7 7 6 6 6 6 6 5 5 5 5 4 4 4
5 6 6 6 7 7 7 6 6 6 6 5 5 5 5 6 6 6 6 6 7 7 7 8 7 8 9 9 10 11 12 12 12 12 11 11 11 11 11 11 10 10 11 11 11 11 11 11 12 12 12 12 11 10 10 10 10 9 9 9 9 9 9 9 9 9 9 9 8 8 8 8 8 8 8 7 7 7 7 7 6 6 6 5 5
6 6 6 6 6 6 6 6 5 6 6 5 5 5 5 5 6 6 6 6 6 7 7 7 6 7 9 9 9 10 11 11 10 10 10 9 10 10 10 9 9 9 9 10 10 11 11 11 12 12 12 12 11 11 11 11 11 11 10 10 10 10 10 10 10 10 10 10 10 10 10 9 9 9 9 9 9 8 8 8 8 8 7 7 7
6 6 6 6 5 6 6 6 6 5 5 5 5 5 5 5 5 5 5 6 6 7 7 7 6 6 8 9 8 8 10 10 10 10 9 9 9 9 9 9 8 8 8 9 9 9 10 10 11 11 11 12 12 11 11 11 11 11 11 11 11 11 11 11 11 11 11 11 11 11 11 11 10 10 10 10 10 10 10 9 9 9 9 8 8
6 6 6 5 5 5 5 6 6 5 5 5 5 5 5 4 5 5 5 5 5 6 6 6 6 6 6 7 8 8 9 9 10 10 9 9 8 9 9 8 8 7 8 8 8 8 8 9 9 10 10 11 11 11 11 11 11 11 11 11 11 11 11 11 11 11 11 11 11 12 12 12 12 11 11 11 11 11 11 11 10 10 10 10 10
6 6 5 5 5 5 5 5 5 5 5 5 5 5 5 5 5 5 5 5 5 5 5 6 6 6 6 6 6 7 8 8 9 9 9 8 8 8 8 8 7 7 7 7 7 7 7 8 8 9 9 10 10 10 11 11 11 11 11 11 11 11 11 11 11 11 11 11 11 11 12 12 12 12 12 12 12 12 12 12 12 12 11 11 11
5 5 5 5 5 5 5 5 5 5 5 5 5 5 5 5 5 5 5 4 4 4 5 5 5 5 5 6 7 6 6 8 9 9 9 8 7 7 7 7 7 6 6 6 6 7 6 7 7 7 8 9 9 10 10 11 11 11 12 12 12 11 11 11 11 11 11 11 11 11 12 12 12 12 12 13 13 13 13 12 13 13 13 13 12
4 4 4 4 5 4 4 4 5 4 4 4 5 5 5 5 5 4 4 4 4 4 4 5 5 5 4 5 7 7 6 7 9 9 8 7 7 7 7 7 7 7 6 7 7 7 7 7 6 7 7 8 8 9 9 10 10 11 11 12 12 12 12 12 12 12 12 12 12 12 12 12 12 12 12 13 13 13 13 13 13 13 13 14 14
2 2 3 4 4 4 4 4 4 4 4 4 4 5 5 5 5 5 4 4 4 5 5 4 4 5 4 5 7 7 5 6 8 8 8 7 7 7 7 7 7 7 7 7 7 7 7 7 7 6 7 7 8 8 9 9 9 10 10 11 11 12 13 13 14 14 14 13 13 13 13 13 13 13 13 13 13 13 13 14 14 14 14 14 14
1 1 2 3 3 4 4 4 4 4 4 3 4 4 5 5 5 5 4 4 4 5 5 5 5 5 5 5 6 6 6 6 7 7 7 6 6 6 6 6 7 6 6 6 6 6 7 7 7 7 7 7 7 7 8 8 8 8 9 9 10 11 12 13 13 14 14 14 14 14 14 14 14 14 14 14 13 13 13 14 14 14 14 14 14
0 0 1 2 2 3 3 4 4 4 4 4 4 4 4 5 5 5 4 4 4 5 5 5 5 5 5 5 5 5 6 6 6 6 5 4 5 6 6 6 6 6 6 6 6 6 6 6 6 6 6 6 6 6 6 6 7 7 8 8 9 10 10 11 12 13 14 14 14 14 15 15 15 15 15 14 14 14 14 14 14 14 15 15 15
0 0 0 1 1 2 2 3 4 4 4 4 4 5 5 5 5 5 5 5 5 5 5 6 5 5 5 5 5 5 6 6 5 5 5 5 5 5 5 5 5 5 5 6 6 6 6 5 5 5 5 5 5 5 5 5 5 6 7 7 8 8 9 9 10 11 12 13 14 14 14 15 15 16 16 16 15 15 15 15 15 15 15 15 16
0 1 1 1 1 2 2 3 3 4 4 4 5 5 5 5 5 5 5 5 5 5 5 5 5 5 6 5 5 4 4 5 4 5 5 5 5 5 5 5 5 5 5 6 6 6 5 5 5 4 4 4 4 3 3 4 4 5 5 6 7 8 8 8 9 9 10 11 12 12 13 14 15 16 16 16 16 16 16 16 16 16 16 16 16
1 1 1 1 1 2 2 3 3 3 4 4 5 5 6 6 6 6 6 6 6 6 6 6 6 6 6 6 6 5 4 4 4 4 5 4 4 4 4 4 5 5 5 5 5 5 5 5 4 4 4 3 3 3 3 3 4 5 5 6 6 7 8 8 8 8 9 9 10 11 12 13 14 15 15 16 16 17 17 17 16 16 16 17 16
1 1 1 1 1 1 2 3 3 3 4 4 5 6 6 6 7 7 7 7 7 7 7 7 7 7 6 6 6 5 5 4 4 4 4 4 4 4 4 4 5 5 5 5 5 4 4 4 4 4 4 3 3 3 3 4 4 5 5 5 6 6 6 7 7 8 8 9 9 10 11 12 12 13 14 15 16 17 17 17 17 17 17 17 17
2 1 1 1 1 1 2 3 3 4 4 4 5 5 6 6 7 7 7 7 7 7 7 7 7 7 7 7 6 6 6 6 4 4 4 4 4 4 4 4 4 4 4 4 4 4 4 4 4 3 3 3 3 3 3 4 4 4 5 5 5 5 5 5 6 6 7 8 8 9 9 10 11 12 13 14 15 16 16 17 17 17 17 17 18
2 2 1 1 1 1 2 2 3 4 4 4 5 5 6 6 7 7 7 8 8 8 8 8 8 8 7 7 7 7 7 7 5 5 5 4 4 4 4 4 4 4 4 4 4 4 3 3 3 3 3 3 3 3 3 4 4 4 5 4 4 4 5 5 6 6 6 7 7 8 8 9 10 11 11 12 13 14 15 16 17 17 18 18 18
2 2 2 2 1 2 2 2 3 4 4 5 5 6 6 6 7 7 8 8 8 8 8 9 9 8 8 7 7 7 8 8 7 6 5 4 5 5 5 5 4 4 4 4 4 4 3 3 3 3 3 3 3 4 4 4 5 5 5 5 5 5 5 5 6 6 7 7 7 8 8 9 9 9 10 10 11 12 13 14 16 16 17 18 18
2 2 2 2 2 2 2 3 4 4 4 5 6 6 6 7 7 7 8 8 8 8 9 9 9 8 8 7 7 6 7 8 8 7 6 5 5 5 5 5 5 5 5 5 5 4 4 4 3 3 3 3 3 4 5 5 5 5 5 5 5 5 5 5 6 6 7 7 7 8 8 8 8 8 8 9 9 9 10 11 13 14 14 16 17
2 2 2 2 3 3 3 4 4 4 5 5 6 6 6 7 7 8 8 8 8 9 9 9 9 9 8 8 7 7 7 7 8 8 7 6 6 6 6 6 5 5 5 5 5 4 4 4 4 3 3 4 4 5 5 5 5 5 5 4 4 4 5 5 5 6 6 7 7 7 7 7 7 7 8 8 8 8 8 9 9 10 11 12 13
2 2 3 3 3 4 3 3 3 3 4 5 5 5 6 6 7 8 8 8 9 9 9 9 9 9 9 9 8 8 8 8 8 8 7 7 7 7 7 7 6 5 5 5 5 5 4 4 4 4 4 5 5 5 5 5 4 4 4 4 4 4 5 5 5 5 5 6 6 7 7 7 7 7 7 8 8 8 8 8 8 8 8 9 10
3 3 3 3 3 3 3 3 2 2 3 4 4 5 5 5 6 6 7 8 9 9 9 9 10 10 10 9 9 9 9 9 9 9 8 8 7 7 7 7 6 6 5 5 6 5 5 5 5 5 5 5 5 5 4 4 4 4 3 3 4 4 4 4 5 5 5 6 6 7 7 8 8 8 8 8 9 9 9 8 8 8 7 8 8
4 4 4 3 2 2 1 2 2 2 2 3 3 4 4 4 5 5 5 6 8 8 9 9 9 10 10 10 10 10 10 10 10 10 9 9 8 7 7 6 6 6 6 5 5 5 5 5 5 5 4 4 4 4 4 3 3 2 2 3 3 3 4 4 4 5 5 6 6 6 7 7 8 8 8 9 9 9 9 9 8 8 8 8 8
5 4 4 3 2 1 1 1 2 2 2 2 3 3 3 3 3 4 4 5 6 7 7 8 8 9 9 10 10 10 10 10 10 10 9 9 8 7 7 7 6 7 7 6 5 5 5 5 5 4 3 3 3 3 2 2 1 1 2 2 2 3 3 4 4 4 5 5 5 6 6 6 7 7 7 8 8 8 8 8 8 8 9 9 9
5 4 3 3 2 1 1 1 2 1 1 1 2 2 2 3 3 3 3 4 4 5 5 6 6 7 7 8 9 9 10 10 10 10 9 9 9 8 8 7 7 7 7 6 5 4 4 4 4 3 3 2 2 2 1 1 1 1 2 2 2 3 3 4 4 4 5 5 5 6 6 6 6 7 7 7 7 8 8 8 8 8 9 9 9
4 4 3 3 3 2 2 2 2 2 1 1 2 1 2 2 2 2 2 3 3 4 4 5 5 6 6 6 7 8 9 10 10 10 9 9 9 9 8 7 6 7 6 5 5 5 4 4 4 3 3 2 2 2 1 1 1 1 2 2 2 3 3 4 4 5 5 5 6 6 6 7 7 7 7 7 8 8 8 8 8 8 9 9 9
5 4 4 4 4 3 3 2 2 2 1 2 2 1 1 2 1 1 2 3 3 3 4 4 5 5 6 6 6 7 8 9 10 10 10 10 10 9 8 7 7 7 6 5 5 4 4 4 3 3 3 2 2 2 2 2 2 2 3 3 3 3 3 4 4 5 5 6 6 7 7 7 8 8 8 8 9 9 9 9 9 9 9 9 10
6 5 5 5 5 4 3 3 3 3 2 2 2 2 2 2 2 2 2 3 3 3 3 3 4 5 5 6 6 6 6 7 9 9 9 9 10 10 9 8 7 7 6 5 5 5 5 4 4 3 3 3 3 3 3 3 4 4 4 4 4 4 4 4 5 5 6 6 7 8 8 8 9 9 9 9 9 10 10 10 10 10 11 11 11
6 5 5 5 5 4 3 3 3 3 3 2 2 2 2 3 3 3 3 3 3 3 3 4 4 4 5 6 6 6 5 6 7 7 7 7 7 8 9 9 9 8 6 5 5 5 6 5 4 4 4 4 4 4 4 4 5 5 5 5 5 5 5 6 6 6 7 8 8 9 9 9 10 10 10 10 10 11 11 11 12 12 12 12 12
6 6 5 5 4 4 3 3 4 4 3 3 2 3 3 3 3 3 3 4 4 4 4 4 4 5 5 5 6 6 6 6 6 6 5 5 5 5 6 8 10 9 7 6 5 6 6 6 5 5 5 5 5 5 5 5 6 6 6 6 7 7 7 8 8 8 9 9 10 10 11 11 11 12 12 12 12 12 12 13 13 13 13 13 13
6 6 6 5 4 4 4 4 4 4 3 3 3 3 3 3 3 4 4 4 5 4 4 4 5 5 5 5 5 5 5 6 6 5 5 5 5 4 5 7 9 9 8 6 6 6 7 7 7 7 6 6 6 7 7 7 7 7 7 8 8 8 9 9 10 10 10 11 11 12 12 12 13 13 13 13 13 14 14 14 14 14 14 15 15
6 6 6 6 5 5 5 4 4 4 4 3 3 3 3 4 4 4 4 5 5 5 4 4 4 4 4 5 5 5 5 5 5 5 5 5 5 5 5 6 7 8 8 7 7 7 8 8 8 8 8 8 9 9 8 8 9 9 9 9 9 9 9 10 10 11 12 12 13 13 13 14 14 14 14 14 15 15 15 16 16 16 15 16 16
6 6 6 6 6 5 5 5 5 4 4 3 3 3 3 3 4 4 4 5 5 5 4 5 5 5 4 5 5 5 5 5 5 5 5 5 5 5 5 6 6 7 8 8 8 8 9 9 9 9 8 9 10 10 10 10 10 10 10 9 9 10 10 10 11 12 13 13 14 14 14 15 15 16 16 16 16 17 17 18 17 17 17 17 17
7 6 6 6 6 6 6 6 5 5 4 4 4 4 4 4 4 4 5 5 5 5 5 5 5 5 5 5 5 4 4 4 4 4 5 5 6 6 6 6 7 8 9 9 8 8 9 9 10 9 9 9 10 10 11 11 10 10 10 9 9 10 10 11 12 13 14 15 15 15 16 16 17 17 18 18 18 19 19 20 19 19 19 18 18
8 8 7 7 7 7 7 7 6 6 5 5 5 5 4 4 5 5 5 5 5 6 5 5 6 6 5 5 5 4 4 4 4 5 5 6 7 7 7 7 8 8 9 9 9 9 9 9 10 10 10 10 10 10 10 10 10 9 9 9 9 10 11 12 13 14 15 16 16 16 17 17 17 18 19 20 20 21 22 22 21 21 21 21 20
8 8 8 8 8 8 8 8 7 7 6 6 6 6 5 5 6 6 6 6 6 6 6 6 6 6 6 5 5 5 5 5 6 6 6 7 8 8 8 9 9 9 10 10 10 11 11 11 11 11 11 11 11 11 10 10 10 9 10 10 10 11 12 13 14 15 16 17 17 17 18 18 18 20 21 22 23 24 24 24 23 23 23 23 23
9 9 9 9 9 9 9 9 8 8 7 7 7 7 7 7 7 7 7 7 6 7 7 7 7 7 6 6 6 6 7 7 7 8 8 8 9 9 10 10 11 11 11 11 11 11 12 12 12 12 12 12 12 11 11 11 10 11 11 12 12 13 14 15 16 17 18 18 18 18 18 19 20 21 23 25 26 26 26 25 25 25 25 25 25
10 10 10 10 10 11 10 10 10 9 9 8 8 8 9 9 8 8 8 8 7 8 8 8 8 8 8 8 8 8 8 9 9 10 10 9 10 10 11 11 12 12 13 13 13 12 12 13 13 14 14 13 13 12 12 12 12 12 13 13 14 15 16 17 18 19 19 19 19 19 19 21 23 24 26 27 27 27 26 26 26 26 26 26 27
10 10 10 10 11 11 11 12 12 11 10 10 10 10 10 11 11 10 11 10 10 10 10 10 11 11 10 10 11 11 11 11 11 12 12 12 12 12 12 13 13 14 14 14 14 14 14 14 14 15 15 15 14 13 13 13 13 13 14 15 15 16 17 18 19 20 20 20 20 21 22 24 26 27 27 27 27 27 26 26 26 26 27 27 28
11 11 11 11 11 12 12 12 13 13 12 12 12 12 12 12 13 13 13 13 13 13 13 13 13 13 13 13 13 13 13 13 14 14 14 15 15 15 15 15 15 15 15 15 15 15 15 15 15 15 15 15 15 14 14 14 15 15 16 16 16 17 18 19 20 20 21 22 23 23 25 26 27 27 27 27 26 26 26 27 27 28 28 29 29
10 11 11 11 12 12 13 12 13 14 14 14 14 15 14 14 15 15 15 16 16 16 16 16 16 16 15 15 15 15 15 16 16 16 16 17 17 17 17 18 18 18 18 17 17 17 16 16 16 16 15 15 15 15 15 16 16 16 17 17 18 19 19 21 22 22 22 24 25 25 26 27 27 27 27 27 27 27 28 28 29 29 30 30 31
11 11 12 12 12 12 13 13 13 13 14 15 15 15 16 16 16 16 17 17 18 18 18 18 18 18 18 18 18 17 17 17 18 18 18 18 19 19 19 19 19 20 20 20 19 19 18 18 17 17 17 16 16 17 17 18 18 18 18 19 19 20 21 22 23 24 25 26 26 27 27 28 29 29 28 28 29 29 29 29 30 31 31 32 33
12 13 13 13 13 14 14 15 15 15 15 16 16 16 16 17 17 17 18 19 19 19 19 19 19 19 19 19 20 19 19 19 19 19 19 20 20 20 20 20 20 20 21 21 21 21 20 20 19 19 19 19 19 19 19 20 20 20 21 21 22 22 22 23 24 26 27 28 29 29 29 29 30 30 29 29 30 30 30 31 32 33 33 34 34
14 15 15 15 15 15 15 16 17 17 17 17 17 17 18 18 18 18 19 20 20 21 21 21 20 20 20 20 20 21 21 21 21 21 21 21 21 21 22 22 22 22 22 22 23 22 22 21 21 21 21 21 21 21 21 21 21 22 23 23 24 24 24 25 26 27 29 30 30 30 31 30 30 30 30 30 30 30 31 32 33 33 33 33 33
16 17 17 17 18 17 17 17 18 19 19 19 19 19 20 20 20 20 20 21 21 22 23 23 23 23 22 22 23 23 23 24 24 24 24 24 23 23 24 24 24 23 23 24 24 23 22 22 22 22 22 22 22 22 22 22 23 24 24 25 25 26 26 27 28 29 30 31 31 31 31 31 31 31 31 31 32 32 32 32 32 33 33 32 32
18 18 19 19 20 20 19 19 20 20 21 22 22 22 22 23 23 23 23 23 24 24 25 25 25 25 25 25 26 26 26 27 27 27 27 27 26 26 26 26 25 24 24 24 24 24 24 23 23 23 22 23 23 23 24 24 25 25 26 26 26 27 28 29 29 30 30 31 32 32 32 32 32 32 33 33 33 33 33 33 33 33 34 34 34
20 20 20 21 21 21 21 21 22 22 23 24 25 25 25 25 25 26 26 26 27 27 27 27 27 28 27 27 28 29 29 29 29 30 29 29 28 28 27 27 26 25 24 24 24 24 24 24 23 22 22 23 24 25 25 25 26 26 26 27 27 28 28 29 30 30 31 32 33 33 33 33 34 34 35 35 35 35 35 34 34 35 35 35 36
22 22 23 23 23 23 23 23 24 24 25 25 26 27 27 27 28 28 29 29 29 30 30 30 30 30 30 30 30 30 31 31 31 30 30 30 30 29 28 27 27 25 25 24 24 24 24 23 22 22 22 23 24 25 25 26 26 26 27 27 28 28 29 30 31 32 32 33 34 34 34 35 35 36 37 37 37 36 36 35 35 36 36 37 38
25 25 26 26 26 26 26 27 27 27 26 27 27 28 28 29 29 30 30 31 31 32 32 32 32 32 32 33 32 32 32 32 32 31 31 31 31 30 28 27 26 26 25 25 25 24 24 23 22 22 23 24 25 25 26 26 26 27 27 27 28 29 30 31 32 33 33 34 34 35 36 36 37 38 38 38 38 37 36 36 37 37 38 38 38
28 28 28 28 29 29 30 30 30 30 29 29 29 30 31 31 31 31 32 32 33 33 33 34 34 34 34 34 34 34 34 34 33 32 32 32 31 30 29 27 26 26 25 25 24 24 23 23 23 23 24 25 25 26 26 27 27 27 27 27 28 29 30 31 32 33 34 34 36 37 37 38 38 38 38 38 38 37 36 36 37 37 37 37 37
Wind_Direction
226 231 235 241 245 247 253 259 264 266 266 263 261 260 257 255 255 257 257 251 247 247 248 241 229 223 224 227 228 226 224 224 229 233 234 235 236 238 239 240 240 242 242 241 241 240 241 242 240 240 241 242 244 246 247 248 249 250 251 252 252 252 253 256 259 262 262 263 264 268 270 271 271 270 275 280 281 284 289 295 301 310 319 327 336
229 231 236 244 246 248 253 257 258 260 263 259 255 259 256 252 254 254 251 244 240 241 242 239 231 221 222 227 225 223 224 226 229 231 232 235 236 238 239 240 241 243 243 242 242 241 241 241 241 241 241 242 244 246 246 248 250 252 253 254 255 256 256 257 258 260 262 264 265 265 266 268 270 270 271 273 274 275 278 282 286 290 296 301 308
227 230 236 244 247 250 252 252 254 254 257 258 257 261 257 253 251 247 244 240 237 240 238 233 232 224 220 224 226 224 223 224 227 227 228 231 232 234 235 236 239 242 242 241 241 241 241 240 241 241 240 241 243 246 246 247 250 253 255 256 257 259 259 259 259 259 260 262 264 266 267 267 268 269 270 271 271 272 273 275 278 280 283 286 290
230 237 243 248 251 251 250 251 253 252 256 258 257 259 257 252 246 239 239 239 236 238 235 230 230 223 218 220 221 221 221 221 223 221 221 224 226 228 230 232 234 238 240 241 242 241 241 240 240 239 238 239 242 244 245 247 250 252 254 256 259 260 260 260 259 260 260 261 263 264 266 267 268 269 269 269 269 269 271 272 273 275 276 278 280
237 241 245 249 251 251 253 257 255 253 257 257 255 254 252 246 238 235 236 237 235 236 236 229 225 221 220 220 217 219 219 219 220 218 217 221 225 226 227 230 232 236 238 240 242 242 240 240 239 239 238 238 240 242 244 247 249 251 253 255 258 260 261 261 260 260 261 262 263 263 264 265 267 268 269 270 269 269 269 269 270 271 272 273 274
239 241 244 247 250 252 254 257 255 254 257 260 255 246 246 245 237 234 234 234 232 235 236 226 221 220 219 219 219 219 215 213 216 218 219 219 222 223 224 227 231 235 235 234 237 237 236 236 236 237 237 237 238 240 243 246 249 250 253 255 258 261 261 262 261 261 261 261 262 263 264 264 265 266 268 269 270 269 268 268 269 269 270 270 271
237 238 241 244 247 251 252 251 249 250 255 257 248 236 237 240 237 234 232 233 232 234 232 221 217 215 212 212 211 208 208 209 209 211 211 211 215 218 220 224 227 230 229 227 229 230 232 233 234 236 236 237 239 241 244 248 251 252 254 257 259 260 261 263 262 261 261 261 261 262 263 265 265 265 266 267 268 269 269 269 269 269 269 270 270
237 239 242 243 245 249 251 248 241 242 249 250 238 225 225 230 231 229 228 233 234 231 223 214 212 208 209 212 204 197 202 205 203 202 203 207 212 216 219 222 225 225 223 223 225 227 229 231 234 236 236 238 241 245 248 250 254 255 256 257 257 259 261 262 263 263 263 263 263 263 263 265 266 267 266 266 267 267 269 269 269 269 270 270 270
235 238 240 243 246 245 244 243 239 237 241 243 232 221 219 222 223 225 226 229 228 219 208 207 210 205 208 209 196 191 197 203 204 203 204 209 215 218 222 223 226 228 225 224 226 227 229 230 233 236 237 240 243 248 251 254 256 257 258 256 255 257 260 260 261 263 263 265 266 266 266 265 266 267 267 267 267 266 267 268 269 269 269 270 269
225 224 229 238 240 238 237 239 234 228 229 231 225 220 220 221 223 228 229 228 222 211 205 207 208 202 203 198 189 191 202 205 205 204 206 212 216 220 224 225 228 229 225 223 225 226 227 230 236 240 242 245 247 250 252 256 258 259 260 260 259 261 261 261 261 262 262 263 265 267 267 267 266 266 268 268 268 268 267 268 269 269 269 269 268
205 198 220 233 232 233 235 232 225 221 221 220 215 216 218 221 224 226 225 223 215 209 211 212 207 203 202 196 193 201 207 203 202 201 202 208 214 218 221 222 225 226 223 223 223 224 227 233 239 241 244 247 249 252 253 257 261 264 265 265 265 265 265 264 262 262 262 263 264 265 265 266 266 266 267 268 269 269 269 269 269 270 269 268 267
121 105 228 240 233 235 234 227 224 222 220 219 218 217 216 219 220 220 220 217 211 211 214 210 203 201 201 200 203 209 206 198 198 201 202 208 214 217 221 221 222 223 222 222 223 226 230 234 235 235 239 243 247 250 255 259 263 268 270 271 271 270 269 267 266 264 263 263 264 264 265 266 266 266 266 267 268 268 269 270 270 270 269 268 268
262 340 305 264 242 239 234 228 226 226 225 224 225 227 224 221 220 222 221 215 211 210 205 203 202 200 199 201 205 208 207 203 205 213 219 225 226 224 225 224 222 221 219 219 223 228 230 228 227 230 235 239 243 249 256 262 267 271 274 275 276 275 274 272 271 268 265 264 264 265 265 266 266 266 266 266 267 267 269 269 268 269 269 269 268
279 293 299 280 261 252 241 234 232 231 231 229 229 231 230 226 224 225 224 217 214 213 208 208 210 206 202 205 208 206 207 208 213 220 226 232 235 229 225 223 220 218 218 220 223 225 225 222 221 226 234 235 237 247 260 270 275 278 279 278 278 278 277 277 277 275 271 268 267 267 267 267 267 267 266 266 266 266 268 268 268 267 267 268 268
261 276 278 271 270 264 249 240 237 237 236 235 236 235 232 229 227 225 224 221 220 222 221 221 220 213 208 213 217 212 209 213 217 220 223 227 227 222 221 220 219 215 215 215 213 212 212 211 212 217 224 228 233 251 268 276 279 283 285 285 283 280 279 278 278 279 277 275 273 272 271 272 271 270 268 267 266 265 266 267 267 266 266 267 269
242 255 272 259 258 261 258 250 243 240 238 238 239 238 234 232 229 226 224 223 226 228 228 227 225 220 219 220 219 219 223 221 219 221 219 219 220 217 214 214 216 211 206 202 197 198 201 204 207 210 217 225 239 257 271 277 282 285 287 288 288 286 284 284 283 281 280 280 279 278 278 278 277 275 273 271 268 266 265 265 265 266 266 267 269
240 247 257 255 253 251 251 252 250 247 243 239 238 237 236 235 231 230 230 228 228 230 230 229 227 226 228 226 225 230 227 216 214 223 218 217 219 211 205 206 206 196 189 192 193 195 200 203 204 208 220 230 242 261 273 277 281 284 288 292 294 294 293 295 296 292 288 287 286 286 286 285 283 281 279 276 273 270 267 266 266 266 267 268 270
231 246 260 261 258 247 245 254 257 254 251 246 242 238 236 235 233 234 236 235 232 231 230 230 228 230 232 230 233 234 222 213 217 223 222 224 217 202 197 196 191 185 186 188 189 192 197 202 210 221 233 240 250 265 274 277 282 285 288 292 295 299 299 300 301 300 298 297 295 295 295 295 293 290 286 282 279 276 272 270 268 268 268 269 269
235 253 271 269 260 257 258 262 264 261 258 252 247 244 240 238 236 236 237 236 234 230 227 226 225 228 230 231 237 235 223 219 218 212 214 224 218 204 199 196 194 201 202 196 195 200 206 216 230 238 240 247 258 268 276 283 287 288 290 293 295 298 299 298 299 299 298 296 296 297 299 300 300 298 295 291 288 284 279 276 274 272 271 270 269
256 267 281 277 263 260 264 270 273 266 261 256 251 248 245 241 240 239 238 236 233 228 224 223 223 224 226 228 233 232 224 219 214 209 207 209 212 209 204 204 209 213 211 205 206 213 225 237 247 249 249 253 263 273 281 286 288 290 292 294 295 297 299 300 299 299 298 297 297 299 301 303 303 303 302 301 300 296 290 286 282 279 276 273 272
277 282 292 288 269 256 259 276 277 261 258 259 254 248 243 240 240 238 237 235 232 229 225 223 224 224 223 225 227 226 221 215 212 211 208 203 206 209 206 208 216 216 212 209 213 225 237 247 255 259 262 266 272 279 283 286 288 290 291 292 294 297 301 303 303 302 302 302 302 303 305 306 306 305 305 305 305 303 301 297 294 290 285 281 279
281 287 295 295 276 260 255 271 277 255 252 254 248 245 240 237 238 236 235 234 231 231 228 225 227 225 224 226 225 222 218 217 214 212 211 207 204 208 211 212 214 215 215 215 221 234 245 254 260 265 270 273 277 281 282 283 286 288 291 295 297 300 305 307 308 309 309 309 308 308 309 309 307 305 304 303 303 304 304 304 303 301 295 290 287
277 286 292 293 283 271 261 263 268 261 256 248 240 238 235 234 236 235 235 235 233 232 229 228 229 228 228 230 228 224 220 219 216 211 212 211 209 215 219 213 207 209 219 225 230 238 249 261 265 263 266 270 273 275 277 280 284 288 294 300 302 305 308 311 313 314 314 314 312 311 310 310 309 305 303 303 303 303 303 303 304 304 303 300 296
277 281 287 287 278 280 272 254 256 265 266 247 233 228 226 229 234 233 234 234 232 231 230 231 230 228 230 231 229 226 222 218 214 212 214 212 209 215 216 209 208 217 225 231 239 247 254 263 269 264 260 263 265 268 269 272 279 289 302 310 312 314 317 319 321 322 322 322 320 318 315 314 313 310 307 306 305 304 303 302 302 302 303 303 302
274 271 274 272 261 265 267 248 248 258 260 235 226 225 222 226 231 229 227 227 225 225 226 228 229 226 226 227 224 221 219 216 212 212 212 206 204 210 214 216 220 224 229 231 236 248 255 261 269 268 259 253 254 259 260 262 281 312 330 332 332 335 336 336 337 336 335 335 333 331 327 324 322 320 316 313 311 309 307 306 304 302 301 302 302
261 255 249 239 236 244 242 239 231 230 244 227 222 222 219 223 230 225 220 218 216 217 217 216 216 216 216 215 215 214 212 210 208 209 207 201 202 207 210 218 223 223 229 231 230 237 244 251 260 267 262 244 235 240 247 253 280 326 344 349 354 354 350 347 346 345 344 344 343 341 339 336 333 331 329 325 322 319 315 312 309 307 304 302 302
245 243 233 218 217 225 232 233 214 205 212 189 190 200 210 217 223 219 213 209 207 207 207 203 201 203 206 206 207 208 206 202 202 206 205 202 206 208 204 209 221 228 228 226 226 228 227 235 252 265 262 239 224 228 236 247 266 297 322 334 340 339 337 337 338 339 341 342 343 343 341 340 338 337 334 332 329 325 322 319 315 313 310 308 306
242 242 233 218 214 223 235 229 204 197 189 168 172 193 203 198 196 198 207 207 201 194 196 199 200 200 201 201 202 205 206 204 204 207 207 207 212 214 210 208 216 226 225 219 223 225 223 233 249 258 255 237 231 243 253 263 273 285 302 314 315 313 321 328 328 329 333 334 336 337 336 335 334 332 331 329 327 325 322 320 317 316 314 312 310
244 240 230 218 216 224 232 218 197 190 189 186 193 204 194 185 188 193 203 208 201 192 194 197 196 194 192 193 195 199 205 209 211 212 213 218 220 219 220 217 211 213 216 215 219 220 222 236 248 247 247 245 247 258 270 277 278 278 286 296 297 295 307 319 320 320 323 326 327 329 330 330 329 326 324 322 321 320 318 316 314 313 312 311 310
239 231 223 218 220 226 222 212 202 198 207 214 211 207 195 188 193 196 199 203 200 199 202 199 194 190 184 182 185 190 196 203 206 208 208 213 216 216 221 222 212 207 205 206 217 223 223 233 247 247 248 251 252 260 271 278 280 278 277 284 290 291 299 308 313 315 317 320 322 323 323 325 325 323 320 318 316 315 314 312 310 309 307 306 306
226 219 216 216 220 223 217 215 214 215 223 223 213 211 204 197 199 201 201 199 196 197 200 199 199 198 190 184 184 187 190 192 194 200 204 205 207 213 222 220 213 210 209 210 223 232 231 236 246 250 253 253 253 260 272 279 284 284 282 286 291 294 299 304 310 313 315 316 316 317 317 318 321 322 320 317 316 314 312 310 308 306 305 304 303
217 215 217 218 223 228 224 224 223 222 226 224 220 219 210 207 209 210 210 204 197 196 199 202 205 206 203 201 198 195 194 193 195 204 212 217 221 228 230 219 213 218 224 227 231 236 241 246 249 251 252 253 256 264 276 283 285 286 288 290 290 291 295 300 303 306 308 310 310 311 312 312 314 317 316 314 314 313 311 309 307 305 303 302 302
215 216 221 224 229 230 226 225 223 221 226 224 219 215 208 210 213 211 212 209 203 202 202 202 201 200 202 203 202 202 201 201 205 211 217 224 230 236 234 220 214 224 234 237 236 240 247 253 254 256 256 259 262 267 275 282 283 284 288 289 287 286 288 290 294 299 302 304 305 305 307 308 308 310 311 310 311 310 309 307 304 302 301 300 300
221 221 225 225 226 224 221 223 221 219 222 214 210 213 207 205 205 205 205 202 199 200 200 197 193 191 193 195 197 202 204 207 214 219 220 224 229 231 231 227 226 234 243 246 246 247 251 254 256 259 263 266 267 268 273 278 282 284 285 283 281 280 281 284 290 297 300 301 301 301 303 304 304 305 306 308 308 309 308 306 303 300 298 297 297
229 230 230 223 220 219 221 224 221 214 211 208 213 215 205 200 203 204 201 194 191 193 193 192 192 192 190 187 190 198 205 211 221 228 225 225 232 233 234 238 239 244 250 251 252 252 251 254 256 259 265 268 268 270 272 274 279 283 281 278 277 277 280 285 291 296 299 299 298 299 300 301 301 302 303 305 306 307 307 305 301 299 297 297 297
227 228 227 223 219 219 222 224 219 211 208 214 220 214 205 204 202 199 195 192 191 193 195 196 198 199 197 194 195 200 208 215 224 232 230 232 241 243 243 247 248 249 252 254 256 257 254 254 256 261 266 267 268 269 268 272 278 281 279 278 279 281 283 287 291 296 301 301 299 299 299 299 299 300 302 304 304 305 305 303 300 297 296 296 296
224 224 226 226 224 223 225 225 221 217 218 224 224 216 210 206 202 200 199 197 199 203 207 209 208 209 211 210 212 217 224 232 238 243 243 245 249 250 252 256 257 256 256 256 259 260 257 254 255 260 265 266 268 269 267 270 277 280 281 282 283 286 289 292 295 298 304 306 304 302 301 300 299 299 301 303 303 303 303 301 298 296 294 294 294
229 228 229 228 226 227 229 229 228 229 230 230 225 219 215 214 213 213 212 210 214 219 222 225 224 225 228 230 233 238 242 247 251 253 255 257 258 257 259 261 261 261 260 260 261 261 259 256 257 262 265 266 268 271 272 273 275 278 282 285 287 290 292 295 297 299 303 305 304 303 302 302 302 302 303 304 303 303 302 300 298 296 293 292 292
233 231 231 230 230 232 234 234 234 237 237 233 228 224 223 224 227 227 225 225 228 231 233 236 238 240 244 246 249 252 253 257 260 261 262 264 265 265 264 263 264 265 265 264 265 264 262 260 262 265 265 265 268 271 274 275 275 278 282 284 287 290 292 295 297 299 301 302 303 303 302 302 303 304 304 304 304 303 301 300 299 297 295 293 292
234 233 232 232 234 236 238 238 236 239 240 235 232 233 232 233 236 236 236 237 238 240 243 246 248 250 252 255 256 258 259 261 263 264 264 265 267 268 269 268 267 268 268 267 266 266 266 266 268 268 266 266 268 270 272 273 275 278 281 283 287 291 294 297 298 299 300 301 301 302 302 302 304 304 305 304 304 302 301 300 300 298 296 294 293
237 237 236 237 238 238 240 241 241 241 242 240 238 239 241 242 243 244 245 246 246 248 251 253 254 255 256 258 259 259 260 262 263 265 265 265 266 267 269 270 268 268 268 268 267 266 267 268 269 271 271 269 269 269 271 272 274 277 281 285 288 292 295 297 298 298 300 301 302 303 303 303 304 305 305 305 304 303 301 300 300 298 297 295 294
240 241 242 242 243 243 243 245 246 245 245 245 245 245 246 249 250 251 252 252 251 252 254 255 256 257 258 260 260 259 260 261 263 264 264 266 267 268 269 269 268 267 266 267 268 268 267 266 267 270 271 271 270 269 270 273 275 278 282 286 289 291 294 297 297 298 300 302 303 305 305 305 305 305 305 305 304 303 302 301 300 298 297 296 295
244 245 245 246 247 247 246 246 248 248 247 248 249 249 251 253 254 256 256 256 255 255 257 258 257 257 258 261 262 261 261 262 264 265 265 267 268 270 271 270 269 268 267 267 269 269 268 267 267 268 269 270 270 270 271 274 276 278 282 285 288 291 294 296 296 297 300 302 303 304 305 305 304 304 304 304 303 302 301 300 299 298 296 295 294
249 250 250 250 249 250 250 249 249 250 249 250 251 253 255 256 258 259 259 258 258 258 259 259 259 259 261 262 262 262 262 263 265 267 268 268 268 269 270 270 270 269 269 268 268 267 267 267 268 267 267 268 270 271 272 274 277 279 281 284 287 291 293 295 294 296 299 301 302 303 304 305 304 304 303 302 302 301 300 299 299 298 297 296 295
254 254 254 253 253 253 253 254 253 253 254 255 256 257 257 258 259 260 261 260 260 261 261 261 260 262 262 262 261 261 263 265 266 269 270 270 269 270 270 270 269 268 269 268 267 266 266 266 266 266 266 267 269 271 273 275 279 282 283 284 286 289 292 294 295 296 298 300 301 302 303 304 304 303 302 302 301 300 299 298 298 298 298 298 297
259 258 257 256 256 256 257 257 258 258 258 259 259 261 260 260 260 261 262 262 262 262 263 262 262 263 263 263 263 264 266 267 267 269 270 271 271 271 272 272 270 268 268 268 265 264 265 265 265 266 267 267 268 270 274 277 281 283 284 285 286 287 290 293 295 296 298 300 301 301 302 303 303 302 301 301 300 299 298 298 299 299 299 299 298
264 262 261 259 258 258 259 261 262 262 262 262 263 264 264 264 264 264 264 265 265 265 265 264 264 265 265 266 267 267 268 268 268 270 271 271 270 271 272 272 271 269 268 266 264 263 264 266 266 266 267 267 269 271 275 278 281 282 283 284 285 287 289 292 296 297 298 300 301 301 300 301 301 301 300 299 299 298 298 298 298 299 299 298 297
267 267 265 262 260 260 262 264 266 267 267 266 266 266 267 266 267 267 267 267 267 267 266 265 265 266 266 267 269 269 268 268 269 270 269 269 269 271 271 270 270 269 266 263 262 263 264 264 265 265 266 268 270 272 275 277 279 281 283 285 286 288 291 294 296 298 298 299 301 301 300 300 301 301 300 299 298 297 297 298 298 298 298 297 296
270 269 268 265 263 263 264 267 269 270 270 269 268 268 268 268 268 269 269 268 268 268 267 266 267 267 267 268 270 270 269 269 269 268 266 266 268 269 269 268 268 266 262 260 261 262 262 262 263 265 267 269 271 273 276 278 280 282 284 286 288 290 293 295 296 297 298 298 300 301 300 300 301 302 301 300 299 297 296 297 297 297 297 296 295
271 270 269 267 264 264 266 267 268 269 271 271 271 270 270 269 269 269 269 269 269 268 268 268 268 268 269 270 270 270 270 270 268 266 264 265 266 266 266 267 265 260 258 258 259 260 260 261 263 266 268 271 273 276 278 281 282 284 286 287 289 291 294 296 297 298 298 298 300 302 301 300 301 301 300 300 299 297 296 297 297 297 297 296 295
272 271 270 268 266 265 267 267 266 267 269 272 273 273 272 271 271 271 270 269 269 269 268 268 268 269 271 271 271 271 270 268 265 264 264 264 264 264 264 264 260 255 254 257 258 258 259 260 263 266 270 273 276 279 281 283 284 285 286 288 290 292 294 296 298 299 298 298 300 302 301 300 300 301 301 300 299 297 297 298 298 298 297 296 296